Friday, January 18, 2019, 2:48 AM EST
Back to Local

KHWV, Shirley Brookhaven Airport

Location: Shirley, NY, United States Lat: 40.817
Local Time: 2:48 AM EST ( 7:48 GMT) Lon: -72.867
Time Zone: US/Eastern Elev: 82 ft

Show me the last for .
Show Coded

Time T Td Feel RH Dir Speed Gust Alt SLP Vis Weather Sky Remarks
2019-01-18 02:09 26 23 22 87 Variable 3 - 30.20 - 1 -SN BR FEW009 OVC013 1-hr Precip Total: 0.01"
2019-01-18 01:56 26 23 22 87 30° 3 - 30.21 30.21 1 -SN BR OVC016 1-hr Precip Total: 0.01"
2019-01-18 01:29 26 20 22 77 10° 3 - 30.21 - 1 -SN OVC024 1-hr Precip Total: Trace
2019-01-18 01:19 27 19 - 71 - Calm - 30.22 - 2 -SN OVC028 1-hr Precip Total: Trace
2019-01-18 00:56 28 17 24 62 Variable 3 - 30.22 30.22 5 -SN OVC032 1-hr Precip Total: Trace
6-hr Precip Total (1am): 0.00"
6-hr Min Temp (1am): 24.1°F
6-hr Max Temp (1am): 28.0°F
2019-01-17 23:56 27 13 - 54 - Calm - 30.25 30.25 10 BKN070 OVC090 24-hr Min Temp (12am): 21.0°F
24-hr Max Temp (12am): 33.1°F
2019-01-17 22:56 27 11 - 50 - Calm - 30.27 30.27 10 OVC100 None
2019-01-17 21:56 25 6 19 43 30° 5 - 30.29 30.29 10 CLR None
2019-01-17 20:56 25 5 21 41 20° 3 - 30.31 30.31 10 CLR None
2019-01-17 19:56 25 5 21 41 Variable 3 - 30.31 30.31 10 CLR None
2019-01-17 18:56 27 5 - 38 - Calm - 30.33 30.33 10 CLR 6-hr Min Temp (7pm): 27.0°F
6-hr Max Temp (7pm): 30.0°F
2019-01-17 17:56 27 3 - 35 - Calm - 30.34 30.34 10 FEW120 None
2019-01-17 16:56 28 3 22 33 140° 6 - 30.32 30.32 10 CLR None
2019-01-17 15:56 29 1 25 29 100° 3 - 30.34 30.34 10 SCT120 None
2019-01-17 14:56 30 1 - 28 - Calm - 30.35 30.35 10 CLR None
2019-01-17 13:56 30 2 23 29 Variable 7 - 30.35 30.35 10 CLR None
2019-01-17 12:56 30 3 22 30 340° 8 - 30.37 30.37 10 CLR 6-hr Min Temp (1pm): 21.0°F
6-hr Max Temp (1pm): 30.9°F
2019-01-17 11:56 29 4 20 33 340° 10 - 30.40 30.40 10 CLR None
2019-01-17 10:56 28 2 20 31 360° 8 - 30.42 30.43 10 CLR None
2019-01-17 09:56 27 4 13 36 360° 14 21 30.42 30.42 10 CLR None
2019-01-17 08:56 26 10 17 50 10° 9 - 30.41 30.41 10 CLR None
2019-01-17 07:56 23 11 - 59 - Calm - 30.39 30.39 10 CLR None
2019-01-17 06:56 22 11 16 62 330° 5 - 30.37 30.37 10 CLR 6-hr Min Temp (7am): 21.9°F
6-hr Max Temp (7am): 30.9°F
2019-01-17 05:56 23 10 17 56 320° 5 - 30.34 30.34 10 CLR None
2019-01-17 04:56 25 10 18 52 330° 6 - 30.32 30.32 10 CLR None
2019-01-17 03:56 27 9 16 45 350° 13 - 30.30 30.30 10 CLR None
2019-01-17 02:56 28 10 20 46 340° 8 - 30.28 30.28 10 CLR None

Support USWX by starting your Amazon purchase here.